| Date Time MST |
Temp °F |
RH % |
DewPt °F |
Wind mph |
Dir ° |
Gust mph |
Dir ° |
Press in Hg |
Solar W/m^2 |
Prec in |
|---|---|---|---|---|---|---|---|---|---|---|
| 2026-05-05 13:55 | 32.7 | 97.5 | 32.1 | 7.9 | 340 | 10.4 | 339 | 24.812 | 162.0 | 0.01 |
| 2026-05-05 13:50 | 32.7 | 97.5 | 32.1 | 7.5 | 341 | 10.2 | 338 | 24.813 | 175.6 | 0.00 |
| 2026-05-05 13:45 | 32.7 | 97.4 | 32.0 | 8.3 | 336 | 10.5 | 338 | 24.814 | 160.1 | 0.01 |
| 2026-05-05 13:40 | 32.7 | 97.6 | 32.1 | 7.8 | 342 | 9.8 | 335 | 24.813 | 169.4 | 0.00 |
| 2026-05-05 13:35 | 32.5 | 97.4 | 31.8 | 7.9 | 337 | 9.4 | 340 | 24.816 | 166.4 | 0.00 |
| 2026-05-05 13:30 | 32.5 | 97.4 | 31.9 | 7.0 | 344 | 9.4 | 348 | 24.818 | 113.1 | 0.00 |
| 2026-05-05 13:25 | 32.6 | 97.3 | 31.9 | 4.6 | 340 | 6.6 | 0 | 24.822 | 107.2 | 0.01 |
| 2026-05-05 13:20 | 32.7 | 97.3 | 32.0 | 5.0 | 359 | 6.6 | 5 | 24.823 | 105.2 | 0.00 |
| 2026-05-05 13:15 | 32.9 | 97.2 | 32.2 | 6.5 | 353 | 8.5 | 345 | 24.826 | 185.6 | 0.01 |
| 2026-05-05 13:10 | 32.9 | 97.2 | 32.2 | 7.1 | 337 | 9.3 | 349 | 24.828 | 221.9 | 0.00 |
| 2026-05-05 13:05 | 32.8 | 97.1 | 32.0 | 7.5 | 348 | 10.7 | 330 | 24.825 | 213.3 | 0.01 |
| 2026-05-05 13:00 | 32.7 | 97.2 | 32.0 | 7.7 | 324 | 8.9 | 333 | 24.824 | 227.0 | 0.00 |
| 2026-05-05 12:55 | 32.6 | 97.1 | 31.9 | 7.6 | 335 | 9.4 | 330 | 24.825 | 220.3 | 0.01 |
| 2026-05-05 12:50 | 32.5 | 97.0 | 31.7 | 7.5 | 323 | 9.3 | 332 | 24.827 | 237.2 | 0.00 |
| 2026-05-05 12:45 | 32.3 | 97.1 | 31.6 | 7.0 | 325 | 9.2 | 318 | 24.828 | 220.0 | 0.00 |
| 2026-05-05 12:40 | 32.1 | 97.0 | 31.3 | 6.7 | 317 | 8.0 | 321 | 24.828 | 173.6 | 0.00 |
| 2026-05-05 12:35 | 32.0 | 97.2 | 31.3 | 4.4 | 295 | 6.9 | 321 | 24.830 | 186.5 | 0.00 |
| 2026-05-05 12:30 | 31.9 | 97.0 | 31.1 | 6.3 | 319 | 7.5 | 328 | 24.830 | 155.7 | 0.00 |
| 2026-05-05 12:25 | 31.6 | 96.9 | 30.8 | 7.6 | 341 | 10.0 | 333 | 24.832 | 141.3 | 0.00 |
| 2026-05-05 12:20 | 31.6 | 96.9 | 30.8 | 9.4 | 341 | 11.3 | 344 | 24.834 | 124.0 | 0.00 |
| 2026-05-05 12:15 | 31.5 | 96.8 | 30.7 | 8.5 | 352 | 11.4 | 343 | 24.834 | 102.2 | 0.00 |
| 2026-05-05 12:10 | 31.6 | 96.5 | 30.7 | 10.5 | 341 | 13.6 | 332 | 24.835 | 92.3 | 0.00 |
| 2026-05-05 12:05 | 31.7 | 96.5 | 30.8 | 8.6 | 327 | 12.3 | 341 | 24.836 | 81.7 | 0.00 |
| 2026-05-05 12:00 | 31.7 | 96.3 | 30.8 | 7.9 | 332 | 10.1 | 11 | 24.836 | 85.5 | 0.00 |
| 2026-05-05 11:55 | 31.8 | 96.0 | 30.8 | 7.4 | 340 | 10.0 | 8 | 24.835 | 117.6 | 0.00 |
| 2026-05-05 11:50 | 31.9 | 95.9 | 30.8 | 9.5 | 6 | 13.6 | 21 | 24.833 | 111.0 | 0.00 |
| 2026-05-05 11:45 | 32.2 | 95.7 | 31.1 | 8.8 | 19 | 12.4 | 15 | 24.831 | 88.8 | 0.00 |
| 2026-05-05 11:40 | 32.4 | 95.2 | 31.2 | 10.1 | 8 | 13.2 | 350 | 24.829 | 91.7 | 0.00 |
| 2026-05-05 11:35 | 33.2 | 94.8 | 31.9 | 8.3 | 335 | 11.7 | 330 | 24.828 | 83.6 | 0.00 |
| 2026-05-05 11:30 | 33.5 | 94.9 | 32.2 | 5.1 | 356 | 6.0 | 4 | 24.826 | 145.1 | 0.01 |
| Date Time MST |
Temp °C |
RH % |
DewPt °C |
Wind m/s |
Dir ° |
Gust m/s |
Dir ° |
Press hPa |
Solar W/m^2 |
Prec mm |
|---|---|---|---|---|---|---|---|---|---|---|
| 2026-05-05 13:55 | 0.4 | 97.5 | 0.1 | 3.5 | 340 | 4.7 | 339 | 840.24 | 162.0 | 0.25 |
| 2026-05-05 13:50 | 0.4 | 97.5 | 0.0 | 3.3 | 341 | 4.5 | 338 | 840.25 | 175.6 | 0.00 |
| 2026-05-05 13:45 | 0.4 | 97.4 | 0.0 | 3.7 | 336 | 4.7 | 338 | 840.29 | 160.1 | 0.25 |
| 2026-05-05 13:40 | 0.4 | 97.6 | 0.1 | 3.5 | 342 | 4.4 | 335 | 840.25 | 169.4 | 0.00 |
| 2026-05-05 13:35 | 0.3 | 97.4 | -0.1 | 3.5 | 337 | 4.2 | 340 | 840.35 | 166.4 | 0.00 |
| 2026-05-05 13:30 | 0.3 | 97.4 | -0.1 | 3.1 | 344 | 4.2 | 348 | 840.45 | 113.1 | 0.00 |
| 2026-05-05 13:25 | 0.3 | 97.3 | -0.1 | 2.0 | 340 | 2.9 | 0 | 840.55 | 107.2 | 0.25 |
| 2026-05-05 13:20 | 0.4 | 97.3 | 0.0 | 2.2 | 359 | 2.9 | 5 | 840.62 | 105.2 | 0.00 |
| 2026-05-05 13:15 | 0.5 | 97.2 | 0.1 | 2.9 | 353 | 3.8 | 345 | 840.70 | 185.6 | 0.25 |
| 2026-05-05 13:10 | 0.5 | 97.2 | 0.1 | 3.2 | 337 | 4.2 | 349 | 840.76 | 221.9 | 0.00 |
| 2026-05-05 13:05 | 0.4 | 97.1 | 0.0 | 3.4 | 348 | 4.8 | 330 | 840.67 | 213.3 | 0.25 |
| 2026-05-05 13:00 | 0.4 | 97.2 | 0.0 | 3.4 | 324 | 4.0 | 333 | 840.64 | 227.0 | 0.00 |
| 2026-05-05 12:55 | 0.4 | 97.1 | -0.1 | 3.4 | 335 | 4.2 | 330 | 840.66 | 220.3 | 0.25 |
| 2026-05-05 12:50 | 0.3 | 97.0 | -0.2 | 3.3 | 323 | 4.2 | 332 | 840.75 | 237.2 | 0.00 |
| 2026-05-05 12:45 | 0.2 | 97.1 | -0.2 | 3.1 | 325 | 4.1 | 318 | 840.76 | 220.0 | 0.00 |
| 2026-05-05 12:40 | 0.1 | 97.0 | -0.4 | 3.0 | 317 | 3.6 | 321 | 840.76 | 173.6 | 0.00 |
| 2026-05-05 12:35 | 0.0 | 97.2 | -0.4 | 1.9 | 295 | 3.1 | 321 | 840.83 | 186.5 | 0.00 |
| 2026-05-05 12:30 | -0.1 | 97.0 | -0.5 | 2.8 | 319 | 3.3 | 328 | 840.86 | 155.7 | 0.00 |
| 2026-05-05 12:25 | -0.2 | 96.9 | -0.6 | 3.4 | 341 | 4.5 | 333 | 840.90 | 141.3 | 0.00 |
| 2026-05-05 12:20 | -0.2 | 96.9 | -0.7 | 4.2 | 341 | 5.0 | 344 | 840.96 | 124.0 | 0.00 |
| 2026-05-05 12:15 | -0.3 | 96.8 | -0.7 | 3.8 | 352 | 5.1 | 343 | 840.97 | 102.2 | 0.00 |
| 2026-05-05 12:10 | -0.2 | 96.5 | -0.7 | 4.7 | 341 | 6.1 | 332 | 841.02 | 92.3 | 0.00 |
| 2026-05-05 12:05 | -0.2 | 96.5 | -0.7 | 3.8 | 327 | 5.5 | 341 | 841.06 | 81.7 | 0.00 |
| 2026-05-05 12:00 | -0.2 | 96.3 | -0.7 | 3.5 | 332 | 4.5 | 11 | 841.04 | 85.5 | 0.00 |
| 2026-05-05 11:55 | -0.1 | 96.0 | -0.7 | 3.3 | 340 | 4.5 | 8 | 841.00 | 117.6 | 0.00 |
| 2026-05-05 11:50 | -0.1 | 95.9 | -0.6 | 4.2 | 6 | 6.1 | 21 | 840.95 | 111.0 | 0.00 |
| 2026-05-05 11:45 | 0.1 | 95.7 | -0.5 | 3.9 | 19 | 5.5 | 15 | 840.89 | 88.8 | 0.00 |
| 2026-05-05 11:40 | 0.2 | 95.2 | -0.4 | 4.5 | 8 | 5.9 | 350 | 840.82 | 91.7 | 0.00 |
| 2026-05-05 11:35 | 0.7 | 94.8 | -0.1 | 3.7 | 335 | 5.2 | 330 | 840.79 | 83.6 | 0.00 |
| 2026-05-05 11:30 | 0.9 | 94.9 | 0.1 | 2.3 | 356 | 2.7 | 4 | 840.71 | 145.1 | 0.25 |